Regional Weather Roundup
Issued by NWS Cleveland, OH

Home | Current Version | Previous Version | Graphics & Text | Print | Product List | Glossary On
Versions: 1 2 3 4 5 6 7 8 9 10 11 12 13 14 15 16 17 18 19 20 21 22 23 24 25 26 27 28 29 30 31 32 33 34 35 36 37 38 39 40 41 42 43 44 45 46 47 48 49 50
000
ASUS41 KCLE 172210
RWRCLE
OHIO REGIONAL WEATHER ROUNDUP
NATIONAL WEATHER SERVICE CLEVELAND, OH
600 PM EDT THU APR 17 2014

NOTE: "FAIR" INDICATES FEW OR NO CLOUDS BELOW 12,000 FEET WITH NO
SIGNIFICANT WEATHER AND/OR OBSTRUCTIONS TO VISIBILITY.

OHZ001>008-015>018-024>027-034-035-043-044-172300-
   NORTHWEST OHIO

CITY           SKY/WX    TMP DP  RH WIND       PRES   REMARKS
DEFIANCE       MOSUNNY   68  30  24 S17G26    30.23R
FINDLAY        MOSUNNY   66  36  32 S17       30.24S
TOLEDO EXPRESS MOSUNNY   66  29  24 S13G22    30.23S
TOLEDO EXEC    SUNNY     66  32  28 SW14      30.24F
LIMA           SUNNY     65  33  30 S13G26    30.25S
$$

OHZ009>014-019>023-028>033-038-089-172300-
   NORTHEAST OHIO

CITY           SKY/WX    TMP DP  RH WIND       PRES   REMARKS
CLE-HOPKINS    MOSUNNY   66  32  28 SW15G21   30.30F
CLE-LAKEFRONT  SUNNY     65  33  30 S13G23    30.27F
CUY CO. ARPT   MOSUNNY   64  30  27 S14       30.29F
LORAIN-ELYRIA  SUNNY     67  34  29 SW16      30.28S
ASHTABULA      SUNNY     62  28  27 S16       30.32S
AKRON-CANTON   MOSUNNY   62  28  28 S12       30.30F
WOOSTER        SUNNY     64  32  30 S9G16     30.30S
MANSFIELD      SUNNY     63  34  33 S12       30.28F
YOUNGSTOWN     MOSUNNY   63  26  24 S10       30.32S
$$

OHZ042-051>053-060>062-070>072-077>081-172300-
  SOUTHWEST OHIO

CITY           SKY/WX    TMP DP  RH WIND       PRES   REMARKS
CINC-COVINGTON PTSUNNY   66  32  28 S7        30.26F
CINC-LUNKEN    SUNNY     66  36  32 S10       30.26F
HAMILTON       MOSUNNY   69  33  26 SW7G16    30.27F
DAYTON         MOSUNNY   66  33  29 S17       30.27S
WRIGHT-PAT AFB SUNNY     66  32  28 SW14      30.26F
DAYTON GENERAL SUNNY     66  34  30 S13G20    30.26F
WILMINGTON     SUNNY     65  33  30 S10       30.28S
$$

OHZ036-037-039>041-045>050-054>059-063>069-073>076-082>088-172300-
  CENTRAL AND SOUTHEAST OHIO

CITY           SKY/WX    TMP DP  RH WIND       PRES   REMARKS
COLUMBUS       MOSUNNY   68  30  24 VRB6      30.28F
OSU AIRPORT    SUNNY     66  29  24 S15G23    30.28S
BOLTON FIELD   SUNNY     66  36  32 S12       30.29S
RICKENBACK AFB SUNNY     69  22  17 S12       30.28S
NEWARK         SUNNY     66  27  23 S6        30.28F
MARION         SUNNY     65  32  29 SW16G25   30.27F
LANCASTER      SUNNY     67  30  25 S6        30.29F
ZANESVILLE     SUNNY     66  26  22 S9        30.30F
NEW PHILLY     SUNNY     65  27  23 SE7G18    30.32S
$$



USA.gov is the U.S. government's official web portal to all federal, state and local government web resources and services.